Home > Products > State Listing > Wyoming Data
Latest:
 RWRWY |
  [top]

000
ASUS45 KCYS 190710
RWRWY

WYOMING REGIONAL WEATHER ROUNDUP
NATIONAL WEATHER SERVICE CHEYENNE WY
100 AM MDT SAT APR 19 2014

NOTE:  "FAIR" INDICATES FEW OR NO CLOUDS BELOW 12,000 FEET
WITH NO SIGNIFICANT WEATHER AND/OR OBSTRUCTIONS TO VISIBILITY.

WYZ001-190800-
YELLOWSTONE NATIONAL PARK

CITY           SKY/WX    TMP DP  RH WIND       PRES   REMARKS
LK YELLOWSTONE   N/A     26  22  84 N3        30.04S
W YELLOWSTONE  NOT AVBL

$$
WYZ002>013-054>058-071-098>099-190800-
NORTHERN WYOMING

CITY           SKY/WX    TMP DP  RH WIND       PRES   REMARKS
JACKSON        PTCLDY    34  27  75 CALM      30.03S
CODY           PTCLDY    37  27  65 CALM      29.92S
GREYBULL       PTCLDY    43  28  55 S5        29.89R
WORLAND        PTCLDY    37  29  72 S10       29.92R WCI  30
SHERIDAN         N/A     41  32  70 SW8         N/A
BUFFALO        PTCLDY    36  26  67 CALM      29.93R
GILLETTE       PTCLDY    38  30  73 N10       29.92S WCI  31
HULETT         CLOUDY   N/A N/A N/A NW7       29.93
NEWCASTLE      FAIR      45  34  65 N24G40    29.88

$$
WYZ014>020-022>026-101>103-190800-
CENTRAL WYOMING

CITY           SKY/WX    TMP DP  RH WIND       PRES   REMARKS
BIG PINEY      PTCLDY    25  14  63 N3        30.05S
PINEDALE       MOSUNNY   28  21  74 W5        30.08R WCI  23
DUBOIS         FAIR      34  18  51 NW17G24   29.97S WCI  23
LANDER         PTCLDY    42  15  33 S9        29.93R
RIVERTON       PTCLDY    43  13  29 NW16      29.92R
CASPER         PTCLDY    38  30  73 N6        29.98R WCI  33
DOUGLAS        MOCLDY    44  37  76 NW20G29   29.94R

$$
WYZ021-027>030-104>119-190800-
SOUTHERN WYOMING

CITY           SKY/WX    TMP DP  RH WIND       PRES   REMARKS
EVANSTON       MOCLDY    43  32  65 CALM      30.07S
KEMMERER       PTSUNNY   34  23  64 CALM      30.07S
FORT BRIDGER   FAIR      39  33  77 S5        30.09S
ROCK SPRINGS   CLOUDY    46  31  55 SW10      30.03S
DIXON          CLOUDY    43  33  68 CALM      30.07R
RAWLINS        MOCLDY    45  31  58 W14       30.01S
SARATOGA       CLOUDY    37  30  75 S6        30.05S WCI  33
LARAMIE        MOCLDY    41  30  65 NE6       30.02R
CHEYENNE       CLOUDY    50  33  52 W6        29.96R
TORRINGTON     CLOUDY    55  36  48 W8        29.87R
PINE BLUFFS    FAIR      50  34  53 CALM      29.92S

$$




000
ASUS45 KCYS 190610
RWRWY

WYOMING REGIONAL WEATHER ROUNDUP
NATIONAL WEATHER SERVICE CHEYENNE WY
1200 AM MDT SAT APR 19 2014

NOTE:  "FAIR" INDICATES FEW OR NO CLOUDS BELOW 12,000 FEET
WITH NO SIGNIFICANT WEATHER AND/OR OBSTRUCTIONS TO VISIBILITY.

WYZ001-190700-
YELLOWSTONE NATIONAL PARK

CITY           SKY/WX    TMP DP  RH WIND       PRES   REMARKS
LK YELLOWSTONE   N/A     27  24  89 CALM      30.04R
6HR MIN TEMP:  27; 6HR MAX TEMP:  39;

W YELLOWSTONE  NOT AVBL

$$
WYZ002>013-054>058-071-098>099-190700-
NORTHERN WYOMING

CITY           SKY/WX    TMP DP  RH WIND       PRES   REMARKS
JACKSON        PTCLDY    36  28  75 CALM      30.03R
CODY           CLEAR     37  28  70 CALM      29.92R
GREYBULL       CLEAR     46  28  49 W6        29.87R
6HR MIN TEMP:  44; 6HR MAX TEMP:  66;

WORLAND        CLEAR     42  29  59 NW5       29.89R
6HR MIN TEMP:  42; 6HR MAX TEMP:  67;

SHERIDAN       CLEAR     34  28  79 SW6       29.92  WCI  29
6HR MIN TEMP:  34; 6HR MAX TEMP:  59;

BUFFALO        CLEAR     37  27  67 N10       29.92S WCI  30
6HR MIN TEMP:  37; 6HR MAX TEMP:  64;

GILLETTE       CLOUDY    43  33  68 N10       29.92R
6HR MIN TEMP:  39; 6HR MAX TEMP:  60;

HULETT         CLOUDY   N/A N/A N/A NW10      29.93
NEWCASTLE      FAIR      46  36  66 NW21      29.83

$$
WYZ014>020-022>026-101>103-190700-
CENTRAL WYOMING

CITY           SKY/WX    TMP DP  RH WIND       PRES   REMARKS
BIG PINEY      PTCLDY    25  14  63 NW5       30.05S WCI  19
6HR MIN TEMP:  25; 6HR MAX TEMP:  53;

PINEDALE       PTCLDY    28  23  80 NW5       30.06S WCI  23
DUBOIS         FAIR      36  16  44 NW23G29   29.98R WCI  24
LANDER         MOCLDY    44  14  29 SE8       29.92R
6HR MIN TEMP:  42; 6HR MAX TEMP:  61;

RIVERTON       MOCLDY    47  11  23 NW21      29.91F
6HR MIN TEMP:  47; 6HR MAX TEMP:  63;

CASPER         MOCLDY    42  24  49 N8        29.93R
6HR MIN TEMP:  41; 6HR MAX TEMP:  63;

DOUGLAS        CLOUDY    53  34  48 NW10      29.89R
6HR MIN TEMP:  48; 6HR MAX TEMP:  74;


$$
WYZ021-027>030-104>119-190700-
SOUTHERN WYOMING

CITY           SKY/WX    TMP DP  RH WIND       PRES   REMARKS
EVANSTON       CLOUDY    42  31  64 N5        30.07R
6HR MIN TEMP:  42; 6HR MAX TEMP:  57;

KEMMERER       MOCLDY    36  27  69 N6        30.07S WCI  31
FORT BRIDGER   FAIR      42  33  71 CALM      30.10R
ROCK SPRINGS   CLOUDY    47  31  53 W10       30.03R
6HR MIN TEMP:  47; 6HR MAX TEMP:  56;

DIXON          FAIR      43  33  69 NE7       30.05R
RAWLINS        PTCLDY    45  31  58 SW10      30.01R
6HR MIN TEMP:  43; 6HR MAX TEMP:  60;

SARATOGA       FAIR      37  32  81 SE3       30.04R
LARAMIE        MOCLDY    40  30  67 S5        30.01R
6HR MIN TEMP:  38; 6HR MAX TEMP:  64;

CHEYENNE       CLOUDY    52  32  46 NW6       29.95S
6HR MIN TEMP:  52; 6HR MAX TEMP:  70;

TORRINGTON     CLOUDY    58  36  43 W7        29.84R
6HR MIN TEMP:  57; 6HR MAX TEMP:  74;

PINE BLUFFS    FAIR      48  34  57 NW9       29.90R

$$




000
ASUS45 KCYS 190510
RWRWY

WYOMING REGIONAL WEATHER ROUNDUP
NATIONAL WEATHER SERVICE CHEYENNE WY
1100 PM MDT FRI APR 18 2014

NOTE:  "FAIR" INDICATES FEW OR NO CLOUDS BELOW 12,000 FEET
WITH NO SIGNIFICANT WEATHER AND/OR OBSTRUCTIONS TO VISIBILITY.

WYZ001-190600-
YELLOWSTONE NATIONAL PARK

CITY           SKY/WX    TMP DP  RH WIND       PRES   REMARKS
LK YELLOWSTONE   N/A     28  24  85 CALM      30.03S
W YELLOWSTONE  NOT AVBL

$$
WYZ002>013-054>058-071-098>099-190600-
NORTHERN WYOMING

CITY           SKY/WX    TMP DP  RH WIND       PRES   REMARKS
JACKSON        PTCLDY    37  28  70 S9        30.02R WCI  31
CODY           CLEAR     39  28  65 NE12      29.91R WCI  32
GREYBULL       PTCLDY    49  30  48 S3        29.85R
WORLAND        CLEAR     46  30  53 N10       29.86R
SHERIDAN         N/A     46  32  57 W6          N/A
BUFFALO        PTCLDY    39  27  62 N15G26    29.92R WCI  31
GILLETTE       CLOUDY    45  37  76 N29G40    29.90R
HULETT         CLOUDY    46  37  71 NW5       29.87
NEWCASTLE      FAIR      50  37  62 NE6       29.79

$$
WYZ014>020-022>026-101>103-190600-
CENTRAL WYOMING

CITY           SKY/WX    TMP DP  RH WIND       PRES   REMARKS
BIG PINEY      PTCLDY    29  14  53 N7        30.05F WCI  22
PINEDALE       PTCLDY    28  23  80 W6        30.06S WCI  22
DUBOIS         FAIR      37  16  41 NW18G31   29.96R WCI  27
LANDER         MOCLDY    45  14  28 SE8       29.91R
RIVERTON       MOCLDY    48  13  24 NW18      29.92R
CASPER         CLOUDY    50  28  42 W16       29.87R
DOUGLAS        MOCLDY    55  33  43 NW8       29.86R

$$
WYZ021-027>030-104>119-190600-
SOUTHERN WYOMING

CITY           SKY/WX    TMP DP  RH WIND       PRES   REMARKS
EVANSTON       MOCLDY    44  32  62 N9        30.06S
KEMMERER       MOCLDY    37  28  70 NW7       30.06F WCI  32
FORT BRIDGER   CLOUDY    46  35  67 NW9       30.08S
ROCK SPRINGS   CLOUDY    50  32  50 NW20G26   30.02F
DIXON          FAIR      46  35  66 CALM      30.03S
RAWLINS        PTCLDY    46  30  53 W9        30.00R
SARATOGA       FAIR      43  32  65 SE7       30.02S
LARAMIE        MOCLDY    44  30  57 NW5       30.00R
CHEYENNE       CLOUDY    57  30  35 SW7       29.93S
TORRINGTON     CLOUDY    60  35  39 S3        29.83R
PINE BLUFFS    FAIR      52  34  50 S3        29.89R

$$




000
ASUS45 KCYS 190410
RWRWY

WYOMING REGIONAL WEATHER ROUNDUP
NATIONAL WEATHER SERVICE CHEYENNE WY
1000 PM MDT FRI APR 18 2014

NOTE:  "FAIR" INDICATES FEW OR NO CLOUDS BELOW 12,000 FEET
WITH NO SIGNIFICANT WEATHER AND/OR OBSTRUCTIONS TO VISIBILITY.

WYZ001-190500-
YELLOWSTONE NATIONAL PARK

CITY           SKY/WX    TMP DP  RH WIND       PRES   REMARKS
LK YELLOWSTONE   N/A     31  22  69 CALM      30.03R
W YELLOWSTONE  NOT AVBL

$$
WYZ002>013-054>058-071-098>099-190500-
NORTHERN WYOMING

CITY           SKY/WX    TMP DP  RH WIND       PRES   REMARKS
JACKSON        CLEAR     37  28  70 S7        30.01R WCI  32
CODY           PTCLDY    41  28  60 N14       29.89R
GREYBULL       PTCLDY    47  33  58 W6        29.83R
WORLAND        PTCLDY    50  29  44 N20G25    29.83R
SHERIDAN         N/A     45  32  61 W7          N/A
BUFFALO        MOCLDY    42  28  57 N24G40    29.91R
GILLETTE       MOCLDY    40  35  83 NW3       29.83R
HULETT         FAIR      46  37  71 CALM      29.81
NEWCASTLE      FAIR      52  37  58 NE7       29.77

$$
WYZ014>020-022>026-101>103-190500-
CENTRAL WYOMING

CITY           SKY/WX    TMP DP  RH WIND       PRES   REMARKS
BIG PINEY      PTCLDY    36  15  42 NW7       30.06R WCI  30
PINEDALE       PTCLDY    34  23  64 CALM      30.06R
DUBOIS         FAIR      37  12  35 NW24G33   29.94R WCI  26
LANDER         CLOUDY    51  14  22 N8        29.87R
RIVERTON       MOCLDY    47  10  22 NW14      29.89R
CASPER         CLOUDY    53  32  44 SW15      29.86R
DOUGLAS        MOCLDY    51  36  56 NW8       29.85R

$$
WYZ021-027>030-104>119-190500-
SOUTHERN WYOMING

CITY           SKY/WX    TMP DP  RH WIND       PRES   REMARKS
EVANSTON       CLOUDY    47  32  56 N7        30.06R
KEMMERER       MOCLDY    37  32  81 N6        30.07R WCI  33
FORT BRIDGER   FAIR      47  36  63 NW9       30.08R
ROCK SPRINGS   CLOUDY    51  32  48 W10       30.03R
DIXON          FAIR      51  34  52 E3        30.03S
RAWLINS        MOCLDY    48  29  47 W12       29.98R
SARATOGA       FAIR      43  32  65 SW9       30.01F
LARAMIE        CLOUDY    47  30  51 N8        29.99R
CHEYENNE       CLOUDY    57  27  31 VRB5      29.93R
TORRINGTON     CLOUDY    59  36  42 NE10      29.81R
PINE BLUFFS    FAIR      57  32  38 S7        29.87S

$$




000
ASUS45 KCYS 190310
RWRWY

WYOMING REGIONAL WEATHER ROUNDUP
NATIONAL WEATHER SERVICE CHEYENNE WY
900 PM MDT FRI APR 18 2014

NOTE:  "FAIR" INDICATES FEW OR NO CLOUDS BELOW 12,000 FEET
WITH NO SIGNIFICANT WEATHER AND/OR OBSTRUCTIONS TO VISIBILITY.

WYZ001-190400-
YELLOWSTONE NATIONAL PARK

CITY           SKY/WX    TMP DP  RH WIND       PRES   REMARKS
LK YELLOWSTONE   N/A     34  22  61 VRB5      29.98R WCI  30
W YELLOWSTONE  NOT AVBL

$$
WYZ002>013-054>058-071-098>099-190400-
NORTHERN WYOMING

CITY           SKY/WX    TMP DP  RH WIND       PRES   REMARKS
JACKSON        CLEAR    N/A N/A N/A S14       29.99R
CODY           MOCLDY    54  21  28 W9G16     29.86R
GREYBULL       PTCLDY    50  33  52 NW22G31   29.81R
WORLAND        PTCLDY    50  29  44 NE7       29.80R
SHERIDAN         N/A     46  34  61 W17         N/A
BUFFALO        MOCLDY    48  36  63 N30G46    29.83R
GILLETTE       CLOUDY    46  37  71 NE3       29.78R
HULETT         FAIR      50  37  62 N5        29.77
NEWCASTLE      FAIR      54  37  54 CALM      29.74

$$
WYZ014>020-022>026-101>103-190400-
CENTRAL WYOMING

CITY           SKY/WX    TMP DP  RH WIND       PRES   REMARKS
BIG PINEY      MOCLDY    37  18  46 NE10      30.03R WCI  30
PINEDALE       PTCLDY    36  23  60 CALM      30.05R
DUBOIS         FAIR      37  14  38 NW15G24   29.94R WCI  28
LANDER         MOCLDY    58  13  17 NW13G30   29.83R
RIVERTON       MOCLDY    54   3  12 NW22      29.86R
CASPER         MOCLDY    54  34  46 SW15      29.85R
DOUGLAS        MOCLDY    56  36  47 CALM      29.84R

$$
WYZ021-027>030-104>119-190400-
SOUTHERN WYOMING

CITY           SKY/WX    TMP DP  RH WIND       PRES   REMARKS
EVANSTON       CLOUDY    48  33  56 NW8       30.02R
KEMMERER       MOCLDY    41  32  70 NW13      30.04R
FORT BRIDGER   MOCLDY    51  33  49 W9        30.04R
ROCK SPRINGS   CLOUDY    54  29  38 NW12      30.00R
DIXON          FAIR      53  33  46 S7        30.01R
RAWLINS        MOCLDY    50  29  44 SW15      29.96R
SARATOGA       FAIR      46  32  57 W7        30.01R
LARAMIE        CLOUDY    48  24  39 SW10      29.97R
CHEYENNE       CLOUDY    58  29  33 SW6       29.92R
TORRINGTON     CLOUDY    64  35  34 S8        29.77R
PINE BLUFFS    FAIR      63  30  29 S16       29.86R

$$




000
ASUS45 KCYS 190210
RWRWY

WYOMING REGIONAL WEATHER ROUNDUP
NATIONAL WEATHER SERVICE CHEYENNE WY
800 PM MDT FRI APR 18 2014

NOTE:  "FAIR" INDICATES FEW OR NO CLOUDS BELOW 12,000 FEET
WITH NO SIGNIFICANT WEATHER AND/OR OBSTRUCTIONS TO VISIBILITY.

WYZ001-190300-
YELLOWSTONE NATIONAL PARK

CITY           SKY/WX    TMP DP  RH WIND       PRES   REMARKS
LK YELLOWSTONE   N/A     36  23  59 W9        29.95R WCI  29
W YELLOWSTONE  NOT AVBL

$$
WYZ002>013-054>058-071-098>099-190300-
NORTHERN WYOMING

CITY           SKY/WX    TMP DP  RH WIND       PRES   REMARKS
JACKSON        CLEAR     45  28  53 S22       29.95R
CODY           PTCLDY    54  21  28 W10G17    29.81R
GREYBULL       MOCLDY    59  24  26 NW14      29.76R
WORLAND        MOCLDY    57  36  45 N8        29.76R
SHERIDAN         N/A     48  34  57 NW10        N/A
BUFFALO        MOCLDY    52  39  61 N12G22    29.76R
GILLETTE       CLOUDY    52  39  61 NE13      29.75R
HULETT         FAIR      54  37  54 N5        29.74
NEWCASTLE      FAIR      59  37  44 NW7       29.73

$$
WYZ014>020-022>026-101>103-190300-
CENTRAL WYOMING

CITY           SKY/WX    TMP DP  RH WIND       PRES   REMARKS
BIG PINEY      PTCLDY    46  16  30 N10       30.01R
PINEDALE       PTCLDY    43  28  56 N10       30.03R
DUBOIS         FAIR      41  16  36 NW21G32   29.91R
LANDER         MOCLDY    59  20  22 W8G47     29.79F
RIVERTON       MOCLDY    55   7  14 NW13      29.83R
CASPER         MOCLDY    56  32  40 SW15      29.83R
DOUGLAS        MOCLDY    59  35  40 NW6       29.82R

$$
WYZ021-027>030-104>119-190300-
SOUTHERN WYOMING

CITY           SKY/WX    TMP DP  RH WIND       PRES   REMARKS
EVANSTON       CLOUDY    52  32  46 W12       30.00S
KEMMERER       MOCLDY    46  34  61 W22G29    29.99F
FORT BRIDGER   FAIR      54  31  42 W15G23    30.02F
ROCK SPRINGS   CLOUDY    54  28  36 W3        29.98S
DIXON          CLOUDY    57  32  38 NW17      29.98R
RAWLINS        CLOUDY    53  29  39 W16G28    29.95R
SARATOGA       FAIR      52  32  46 NW7       29.98R
LARAMIE        CLOUDY    52  23  32 W7        29.96R
CHEYENNE       CLOUDY    63  28  26 S10       29.89S
TORRINGTON     CLOUDY    67  36  31 SW12      29.75R
PINE BLUFFS    FAIR      61  30  31 S14       29.86R

$$




000
ASUS45 KCYS 190110
RWRWY

WYOMING REGIONAL WEATHER ROUNDUP
NATIONAL WEATHER SERVICE CHEYENNE WY
700 PM MDT FRI APR 18 2014

NOTE:  "FAIR" INDICATES FEW OR NO CLOUDS BELOW 12,000 FEET
WITH NO SIGNIFICANT WEATHER AND/OR OBSTRUCTIONS TO VISIBILITY.

WYZ001-190200-
YELLOWSTONE NATIONAL PARK

CITY           SKY/WX    TMP DP  RH WIND       PRES   REMARKS
LK YELLOWSTONE   N/A     38  25  59 W9G22     29.91S WCI  31
W YELLOWSTONE  NOT AVBL

$$
WYZ002>013-054>058-071-098>099-190200-
NORTHERN WYOMING

CITY           SKY/WX    TMP DP  RH WIND       PRES   REMARKS
JACKSON        SUNNY     46  28  49 S23G30    29.93F
CODY           PTSUNNY   55  23  28 W9        29.78R
GREYBULL       MOCLDY    65  21  18 NW22      29.72R
WORLAND        MOCLDY    63  28  26 N5        29.73R
SHERIDAN         N/A     52  34  50 NW15G22     N/A
BUFFALO        MOCLDY    59  36  42 N9G24     29.71R
GILLETTE       CLOUDY    57  41  55 N6        29.73R
HULETT         MOCLDY    55  37  50 N9        29.73
NEWCASTLE      FAIR      64  36  34 NW9       29.69

$$
WYZ014>020-022>026-101>103-190200-
CENTRAL WYOMING

CITY           SKY/WX    TMP DP  RH WIND       PRES   REMARKS
BIG PINEY      PTSUNNY   52  18  26 W15       30.00R
PINEDALE       MOCLDY    46  28  49 N10G18    30.01R
DUBOIS         FAIR      45  14  29 W23G35    29.90S
LANDER         PTSUNNY   59  32  36 MISG      29.80R
RIVERTON       MOCLDY    60  16  18 W24G32    29.82R
CASPER         CLOUDY    61  32  33 W24G33    29.82R
DOUGLAS        MOCLDY    65  34  31 NW23G33   29.79R

$$
WYZ021-027>030-104>119-190200-
SOUTHERN WYOMING

CITY           SKY/WX    TMP DP  RH WIND       PRES   REMARKS
EVANSTON       MOSUNNY   54  30  40 W20       30.00S
KEMMERER       MOCLDY    48  34  57 W24       30.00S
FORT BRIDGER   CLOUDY    58  30  34 W21G26    30.03R
ROCK SPRINGS   CLOUDY    55  30  38 W8        29.98S
DIXON          MOCLDY    62  24  23 W8        29.96S
RAWLINS        CLOUDY    55  30  38 W26G33    29.94R
SARATOGA       FAIR      59  21  23 W9        29.96S
LARAMIE        CLOUDY    61  23  23 SW17      29.94R
CHEYENNE       CLOUDY    65  24  21 SW12      29.89R
TORRINGTON     CLOUDY    69  38  32 S16       29.72S
PINE BLUFFS    FAIR      66  30  26 S9        29.86S

$$




000
ASUS45 KCYS 190010
RWRWY

WYOMING REGIONAL WEATHER ROUNDUP
NATIONAL WEATHER SERVICE CHEYENNE WY
600 PM MDT FRI APR 18 2014

NOTE:  "FAIR" INDICATES FEW OR NO CLOUDS BELOW 12,000 FEET
WITH NO SIGNIFICANT WEATHER AND/OR OBSTRUCTIONS TO VISIBILITY.

WYZ001-190100-
YELLOWSTONE NATIONAL PARK

CITY           SKY/WX    TMP DP  RH WIND       PRES   REMARKS
LK YELLOWSTONE   N/A     38  28  67 W8        29.91S WCI  32
6HR MIN TEMP:  34; 6HR MAX TEMP:  40; 6HR PCP:  0.01;

W YELLOWSTONE  NOT AVBL

$$
WYZ002>013-054>058-071-098>099-190100-
NORTHERN WYOMING

CITY           SKY/WX    TMP DP  RH WIND       PRES   REMARKS
JACKSON        SUNNY     46  28  49 S22G29    29.94R
CODY           PTSUNNY   57  25  28 W15G24    29.74R
GREYBULL       PTSUNNY   66  25  21 NW24      29.69R
6HR MIN TEMP:  61; 6HR MAX TEMP:  68;

WORLAND        CLOUDY    66  21  18 W26G38    29.71R
6HR MIN TEMP:  65; 6HR MAX TEMP:  75;

SHERIDAN         N/A     59  30  33 NW20G35     N/A
6HR MIN TEMP:  58; 6HR MAX TEMP:  71;

BUFFALO        CLOUDY    62  30  29 W25G44    29.67F
6HR MIN TEMP:  61; 6HR MAX TEMP:  70;

GILLETTE       PTSUNNY   59  39  47 N7        29.70S
6HR MIN TEMP:  59; 6HR MAX TEMP:  74;

HULETT         FAIR      61  37  41 N21G29    29.71
NEWCASTLE      LGT RAIN  64  34  32 W7        29.69

$$
WYZ014>020-022>026-101>103-190100-
CENTRAL WYOMING

CITY           SKY/WX    TMP DP  RH WIND       PRES   REMARKS
BIG PINEY      PTSUNNY   53  27  36 W20G32    29.99F
6HR MIN TEMP:  48; 6HR MAX TEMP:  62; 6HR PCP: TRACE;

PINEDALE       MOCLDY    46  32  57 N12       30.00R
DUBOIS         FAIR      46  19  34 W21G32    29.90S
LANDER         PTSUNNY   60  32  34 SW28G52   29.76F
6HR MIN TEMP:  52; 6HR MAX TEMP:  71; 6HR PCP: TRACE;

RIVERTON       PTSUNNY   60  29  30 W21G31    29.81F
6HR MIN TEMP:  59; 6HR MAX TEMP:  68;

CASPER         CLOUDY    63  32  31 W26G41    29.80R
6HR MIN TEMP:  63; 6HR MAX TEMP:  74;

DOUGLAS        CLOUDY    74  27  17 SW21G35   29.76R
6HR MIN TEMP:  64; 6HR MAX TEMP:  75;


$$
WYZ021-027>030-104>119-190100-
SOUTHERN WYOMING

CITY           SKY/WX    TMP DP  RH WIND       PRES   REMARKS
EVANSTON       PTSUNNY   56  29  35 W29G38    30.00F
6HR MIN TEMP:  54; 6HR MAX TEMP:  63;

KEMMERER       CLOUDY    50  32  50 W21G26    30.00F
FORT BRIDGER   FAIR      60  29  31 W21G30    30.02S
ROCK SPRINGS   CLOUDY    56  32  40 NW13      29.98R
6HR MIN TEMP:  56; 6HR MAX TEMP:  71;

DIXON          FAIR      65  23  20 SW16G23   29.96F
RAWLINS        CLOUDY    60  26  27 W20G36    29.93R
6HR MIN TEMP:  60; 6HR MAX TEMP:  71;

SARATOGA       FAIR      64  21  19 SW26G33   29.95F
LARAMIE        CLOUDY    65  20  17 SW25G35   29.92S
6HR MIN TEMP:  62; 6HR MAX TEMP:  69;

CHEYENNE       CLOUDY    70  22  16 SW18      29.88F
6HR MIN TEMP:  64; 6HR MAX TEMP:  73;

TORRINGTON     CLOUDY    74  34  23 S17       29.72F
6HR MIN TEMP:  70; 6HR MAX TEMP:  82;

PINE BLUFFS    FAIR      70  30  23 S9        29.85F

$$




000
ASUS45 KCYS 182310
RWRWY

WYOMING REGIONAL WEATHER ROUNDUP
NATIONAL WEATHER SERVICE CHEYENNE WY
500 PM MDT FRI APR 18 2014

NOTE:  "FAIR" INDICATES FEW OR NO CLOUDS BELOW 12,000 FEET
WITH NO SIGNIFICANT WEATHER AND/OR OBSTRUCTIONS TO VISIBILITY.

WYZ001-190000-
YELLOWSTONE NATIONAL PARK

CITY           SKY/WX    TMP DP  RH WIND       PRES   REMARKS
LK YELLOWSTONE   N/A     37  27  67 VRB7G18   29.91F WCI  32
W YELLOWSTONE  NOT AVBL

$$
WYZ002>013-054>058-071-098>099-190000-
NORTHERN WYOMING

CITY           SKY/WX    TMP DP  RH WIND       PRES   REMARKS
JACKSON        SUNNY     46  30  53 S20G28    29.93F
CODY           MOSUNNY   57  27  30 SW13G28   29.73F
GREYBULL       CLOUDY    65  37  35 NW15      29.68S
WORLAND        CLOUDY    66  29  24 SW30      29.69F
SHERIDAN         N/A     63  25  23 SW28G40     N/A
BUFFALO        CLOUDY    65  36  34 SE8       29.71F
GILLETTE       CLOUDY    63  39  41 NW21G31   29.70R
HULETT         FAIR      70  36  28 NW16G24   29.65
NEWCASTLE      FAIR      64  36  34 MISG      29.68

$$
WYZ014>020-022>026-101>103-190000-
CENTRAL WYOMING

CITY           SKY/WX    TMP DP  RH WIND       PRES   REMARKS
BIG PINEY      CLOUDY    50  30  46 W16G31    30.00R
PINEDALE       CLOUDY    46  34  61 NW10      29.99R
DUBOIS         FAIR      45  23  42 W25G36    29.89S
LANDER         LGT RAIN  56  37  49 SW25G44   29.78F
RIVERTON       PTSUNNY   60  28  29 W30G36    29.83R
CASPER         PTSUNNY   71  25  17 W36G47    29.76R
DOUGLAS        CLOUDY    71  27  19 SW22G32   29.75F

$$
WYZ021-027>030-104>119-190000-
SOUTHERN WYOMING

CITY           SKY/WX    TMP DP  RH WIND       PRES   REMARKS
EVANSTON       CLOUDY    55  30  38 W25G32    30.01S
KEMMERER       MOCLDY    50  34  53 W15G26    30.01F
FORT BRIDGER   FAIR      61  32  34 NW28G36   30.02R
ROCK SPRINGS   CLOUDY    57  32  38 NW16      29.97R
DIXON          FAIR      66  22  18 SW20G33   29.96R
RAWLINS        PTSUNNY   67  14  13 SW35G40   29.89S
SARATOGA       MOCLDY    64  23  20 W22G32    29.95S
LARAMIE        PTSUNNY   64  19  17 SW22G31   29.92S
CHEYENNE       PTSUNNY   71  24  17 SW18G25   29.89F
TORRINGTON     PTSUNNY   77  31  18 S23G31    29.73F
PINE BLUFFS    FAIR      73  27  17 S13G22    29.86S

$$




000
ASUS45 KCYS 182210
RWRWY

WYOMING REGIONAL WEATHER ROUNDUP
NATIONAL WEATHER SERVICE CHEYENNE WY
400 PM MDT FRI APR 18 2014

NOTE:  "FAIR" INDICATES FEW OR NO CLOUDS BELOW 12,000 FEET
WITH NO SIGNIFICANT WEATHER AND/OR OBSTRUCTIONS TO VISIBILITY.

WYZ001-182300-
YELLOWSTONE NATIONAL PARK

CITY           SKY/WX    TMP DP  RH WIND       PRES   REMARKS
LK YELLOWSTONE   N/A     39  27  62 W14G22    29.93S WCI  31
W YELLOWSTONE  NOT AVBL

$$
WYZ002>013-054>058-071-098>099-182300-
NORTHERN WYOMING

CITY           SKY/WX    TMP DP  RH WIND       PRES   REMARKS
JACKSON        SUNNY     46  32  57 S23G31    29.94S
CODY           PTSUNNY   57  34  41 W18G29    29.74S
GREYBULL       CLOUDY    62  40  44 NW12      29.68F
WORLAND        CLOUDY    65  31  28 SW24G33   29.70F
SHERIDAN         N/A     63  25  23 SW28G39     N/A
BUFFALO        PTSUNNY   62  36  37 SW22      29.73R
GILLETTE       CLOUDY    70  37  30 NW23G33   29.66S
HULETT         FAIR      70  36  28 SW15G21   29.64
NEWCASTLE      FAIR      66  34  30 MISG      29.70

$$
WYZ014>020-022>026-101>103-182300-
CENTRAL WYOMING

CITY           SKY/WX    TMP DP  RH WIND       PRES   REMARKS
BIG PINEY      CLOUDY    52  32  46 W30G39    29.99F
PINEDALE       CLOUDY    46  34  61 N8        29.98S
DUBOIS         FAIR      46  30  53 W24G32    29.88S
LANDER         PTSUNNY   58  37  45 SW28G38   29.83R
RIVERTON       PTSUNNY   64  30  27 W28G37    29.82R
CASPER         CLOUDY    71  24  17 SW32G49   29.73F
DOUGLAS        CLOUDY    69  31  24 SW17      29.76F

$$
WYZ021-027>030-104>119-182300-
SOUTHERN WYOMING

CITY           SKY/WX    TMP DP  RH WIND       PRES   REMARKS
EVANSTON       PTSUNNY   57  29  34 W26G36    30.01S
KEMMERER       MOCLDY    50  34  53 W31G37    30.01S
FORT BRIDGER   FAIR      61  28  28 W22G32    30.01S
ROCK SPRINGS   PTSUNNY   62  26  25 W22G33    29.94R
DIXON          FAIR      67  24  19 SW22G30   29.95S
RAWLINS        CLOUDY    67  17  14 SW39G49   29.89F
SARATOGA       FAIR      68  21  17 SW28G41   29.95R
LARAMIE        PTSUNNY   68  21  16 SW29G39   29.92F
CHEYENNE       PTSUNNY   69  27  20 SW15G25   29.90F
TORRINGTON     CLOUDY    80  27  14 SW24G38   29.75F
PINE BLUFFS    FAIR      77  27  15 S16G24    29.87F

$$




000
ASUS45 KCYS 182110
RWRWY

WYOMING REGIONAL WEATHER ROUNDUP
NATIONAL WEATHER SERVICE CHEYENNE WY
300 PM MDT FRI APR 18 2014

NOTE:  "FAIR" INDICATES FEW OR NO CLOUDS BELOW 12,000 FEET
WITH NO SIGNIFICANT WEATHER AND/OR OBSTRUCTIONS TO VISIBILITY.

WYZ001-182200-
YELLOWSTONE NATIONAL PARK

CITY           SKY/WX    TMP DP  RH WIND       PRES   REMARKS
LK YELLOWSTONE   N/A     37  29  72 VRB7G21   29.93S WCI  32
W YELLOWSTONE  NOT AVBL

$$
WYZ002>013-054>058-071-098>099-182200-
NORTHERN WYOMING

CITY           SKY/WX    TMP DP  RH WIND       PRES   REMARKS
JACKSON        MOSUNNY   45  36  70 S23       29.94F
CODY           CLOUDY    57  36  44 SW15G24   29.76S
GREYBULL       CLOUDY    65  37  35 W17G25    29.71R
WORLAND        CLOUDY    67  33  28 W12G18    29.70R
SHERIDAN         N/A     63  27  25 SW28G36     N/A
BUFFALO        CLOUDY    64  33  31 W24G32    29.72R
GILLETTE       CLOUDY    71  31  22 SW29G36   29.66S
HULETT         FAIR      70  34  26 SW21G33   29.65
NEWCASTLE      FAIR      66  32  28 MISG      29.73

$$
WYZ014>020-022>026-101>103-182200-
CENTRAL WYOMING

CITY           SKY/WX    TMP DP  RH WIND       PRES   REMARKS
BIG PINEY      CLOUDY    50  31  48 NW23G31   30.00R
PINEDALE       CLOUDY    46  32  57 W22G31    29.98F
DUBOIS         FAIR      45  34  65 W10G20    29.89F
LANDER         PTSUNNY   62  34  35 W32G48    29.81R
RIVERTON       PTSUNNY   65  29  25 W35G44    29.80R
CASPER         CLOUDY    70  25  18 SW33G51   29.76S
DOUGLAS        CLOUDY    70  31  23 W15       29.78F

$$
WYZ021-027>030-104>119-182200-
SOUTHERN WYOMING

CITY           SKY/WX    TMP DP  RH WIND       PRES   REMARKS
EVANSTON       PTSUNNY   57  30  35 W23G30    30.01R
KEMMERER       MOCLDY    54  34  47 W26G33    30.01R
FORT BRIDGER   FAIR      61  27  27 W24G32    30.00S
ROCK SPRINGS   PTSUNNY   68  17  14 W30G43    29.92R
DIXON          FAIR      70  24  17 SW22G33   29.96F
RAWLINS        PTSUNNY   68  20  16 SW38G46   29.90S
SARATOGA       FAIR      70  23  17 SW32G38   29.94F
LARAMIE        PTSUNNY   66  23  19 SW32G39   29.94F
CHEYENNE       PTSUNNY   71  28  20 S17G25    29.93S
TORRINGTON     CLOUDY    79  28  15 SW21G38   29.77F
PINE BLUFFS    FAIR      73  28  19 S13G26    29.90F

$$




000
ASUS45 KCYS 182010
RWRWY

WYOMING REGIONAL WEATHER ROUNDUP
NATIONAL WEATHER SERVICE CHEYENNE WY
200 PM MDT FRI APR 18 2014

NOTE:  "FAIR" INDICATES FEW OR NO CLOUDS BELOW 12,000 FEET
WITH NO SIGNIFICANT WEATHER AND/OR OBSTRUCTIONS TO VISIBILITY.

WYZ001-182100-
YELLOWSTONE NATIONAL PARK

CITY           SKY/WX    TMP DP  RH WIND       PRES   REMARKS
LK YELLOWSTONE   N/A     36  30  79 W10G32    29.93R WCI  28
W YELLOWSTONE  NOT AVBL

$$
WYZ002>013-054>058-071-098>099-182100-
NORTHERN WYOMING

CITY           SKY/WX    TMP DP  RH WIND       PRES   REMARKS
JACKSON        CLOUDY    43  37  81 S8        29.95R
CODY           CLOUDY    61  37  41 W18       29.76R
GREYBULL       CLOUDY    64  31  28 CALM      29.69S
WORLAND        CLOUDY    70  31  23 NW12      29.67R
SHERIDAN         N/A     61  28  29 SW24G40     N/A
BUFFALO        CLOUDY    69  37  30 N16G22    29.67S
GILLETTE       CLOUDY    69  31  24 SW25G38   29.66F
HULETT         FAIR      68  36  30 S24G36    29.67
NEWCASTLE      FAIR      64  32  29 MISG      29.76

$$
WYZ014>020-022>026-101>103-182100-
CENTRAL WYOMING

CITY           SKY/WX    TMP DP  RH WIND       PRES   REMARKS
BIG PINEY      LGT RAIN  48  36  63 NW18G30   29.99R
PINEDALE       CLOUDY    43  34  70 W16       29.99R
DUBOIS         LGT RAIN  36  34  93 NW13G25   29.92R WCI  27
LANDER         PTSUNNY   70  25  18 SW36G46   29.76R
RIVERTON       PTSUNNY   68  22  17 SW30G43   29.76F
CASPER         CLOUDY    70  25  18 SW20G39   29.76F
DOUGLAS        CLOUDY    64  39  39 SE7       29.79F

$$
WYZ021-027>030-104>119-182100-
SOUTHERN WYOMING

CITY           SKY/WX    TMP DP  RH WIND       PRES   REMARKS
EVANSTON       PTSUNNY   60  25  26 W24G40    29.99R
KEMMERER       MOCLDY    52  36  54 NW21G29   30.00R
FORT BRIDGER   FAIR      66  20  17 W32G45    30.00R
ROCK SPRINGS   PTSUNNY   70  16  12 SW28G44   29.90R
DIXON          FAIR      71  26  18 SW21G29   29.98S
RAWLINS        PTSUNNY   70  20  15 SW35G52   29.90F
SARATOGA       FAIR      66  23  19 SW31G44   29.95F
LARAMIE        CLOUDY    68  24  19 S28G37    29.95F
CHEYENNE       PTSUNNY   71  28  20 SW14G25   29.93F
TORRINGTON     CLOUDY    77  32  19 S23G29    29.79F
PINE BLUFFS    FAIR      73  28  19 S17       29.92F

$$




    US Dept of Commerce
    National Oceanic and Atmospheric Administration
    National Weather Service
    1325 East West Highway
    Silver Spring, MD 20910
    Page Author: NWS Internet Services Team
Disclaimer
Information Quality
Credits
Glossary
Privacy Policy
Freedom of Information Act (FOIA)
About Us
Career Opportunities